Total_Precipitation_Accumulation
0.12 0.14 0.16 0.15 0.13 0.13 0.13 0.15 0.22 0.17 0.21 0.30 0.38 0.46 0.46 0.49 0.40 0.31 0.12 0.09 0.10 0.08 0.07 0.08 0.11 0.14 0.17 0.19 0.22 0.29 0.38 0.43 0.49 0.60 0.73 0.84 0.94 1.00
0.27 0.23 0.23 0.22 0.20 0.20 0.22 0.24 0.32 0.29 0.29 0.35 0.43 0.46 0.37 0.26 0.19 0.19 0.12 0.09 0.07 0.06 0.05 0.05 0.06 0.07 0.07 0.09 0.10 0.11 0.14 0.18 0.22 0.29 0.37 0.46 0.57 0.76
0.44 0.41 0.33 0.32 0.30 0.27 0.29 0.30 0.32 0.36 0.33 0.30 0.37 0.34 0.28 0.19 0.13 0.11 0.08 0.06 0.04 0.05 0.04 0.03 0.04 0.05 0.05 0.06 0.08 0.07 0.06 0.06 0.08 0.11 0.15 0.20 0.25 0.29
0.50 0.64 0.60 0.48 0.36 0.27 0.24 0.24 0.30 0.39 0.40 0.26 0.23 0.24 0.23 0.20 0.16 0.13 0.09 0.05 0.04 0.07 0.07 0.06 0.05 0.05 0.05 0.04 0.05 0.05 0.06 0.05 0.04 0.04 0.04 0.06 0.08 0.10
0.32 0.54 0.72 0.79 0.63 0.37 0.22 0.18 0.22 0.33 0.39 0.30 0.24 0.25 0.23 0.19 0.16 0.13 0.10 0.07 0.05 0.06 0.07 0.06 0.05 0.05 0.04 0.03 0.03 0.02 0.02 0.02 0.02 0.02 0.02 0.02 0.02 0.03
0.19 0.28 0.42 0.61 0.72 0.66 0.43 0.26 0.23 0.26 0.28 0.28 0.32 0.41 0.37 0.24 0.17 0.14 0.12 0.09 0.06 0.03 0.04 0.03 0.02 0.02 0.01 0.01 0.01 0.01 0.01 0.01 0.01 0.01 0.01 0.01 0.01 0.01
0.11 0.16 0.19 0.28 0.41 0.53 0.55 0.47 0.36 0.28 0.30 0.32 0.47 0.73 0.68 0.48 0.27 0.15 0.11 0.10 0.07 0.04 0.03 0.02 0.01 0.01 0.01 0.01 0.01 0.01 0.01 0.01 0.01 0.01 0.00 0.01 0.01 0.00
0.13 0.14 0.13 0.14 0.19 0.29 0.39 0.44 0.44 0.36 0.32 0.37 0.51 0.66 0.68 0.56 0.37 0.21 0.12 0.08 0.09 0.08 0.04 0.03 0.01 0.01 0.00 0.00 0.00 0.00 0.00 0.00 0.00 0.00 0.00 0.00 0.00 0.00
0.17 0.18 0.14 0.09 0.10 0.16 0.23 0.30 0.33 0.31 0.29 0.30 0.42 0.55 0.60 0.52 0.37 0.23 0.15 0.11 0.08 0.07 0.05 0.03 0.01 0.00 0.00 0.00 0.00 0.00 0.00 0.00 0.00 0.00 0.00 0.00 0.00 0.00
0.18 0.18 0.17 0.12 0.08 0.08 0.13 0.18 0.22 0.23 0.22 0.20 0.27 0.40 0.44 0.38 0.29 0.24 0.20 0.17 0.14 0.10 0.04 0.03 0.01 0.00 0.00 0.00 0.00 0.00 0.00 0.00 0.00 0.00 0.00 0.00 0.00 0.00
0.19 0.20 0.19 0.16 0.11 0.06 0.06 0.10 0.15 0.18 0.20 0.18 0.18 0.25 0.29 0.26 0.22 0.20 0.21 0.17 0.17 0.14 0.05 0.02 0.01 0.01 0.01 0.01 0.00 0.00 0.00 0.00 0.00 0.00 0.00 0.00 0.00 0.00
0.26 0.27 0.24 0.19 0.15 0.09 0.06 0.06 0.08 0.12 0.15 0.15 0.13 0.14 0.16 0.17 0.17 0.14 0.13 0.11 0.11 0.10 0.05 0.02 0.02 0.03 0.04 0.01 0.00 0.00 0.00 0.00 0.00 0.00 0.00 0.00 0.00 0.00
0.31 0.38 0.35 0.29 0.20 0.13 0.09 0.07 0.06 0.09 0.12 0.14 0.14 0.14 0.16 0.16 0.15 0.16 0.14 0.10 0.08 0.06 0.03 0.01 0.02 0.03 0.03 0.01 0.00 0.00 0.00 0.00 0.00 0.00 0.00 0.00 0.00 0.00
0.32 0.49 0.51 0.44 0.35 0.24 0.17 0.12 0.08 0.07 0.11 0.15 0.16 0.14 0.14 0.13 0.14 0.16 0.17 0.14 0.10 0.07 0.04 0.01 0.01 0.01 0.01 0.01 0.01 0.00 0.00 0.00 0.00 0.00 0.00 0.00 0.00 0.00
0.31 0.52 0.64 0.60 0.51 0.40 0.29 0.22 0.14 0.10 0.10 0.12 0.13 0.11 0.08 0.08 0.10 0.14 0.18 0.17 0.15 0.10 0.06 0.03 0.01 0.01 0.01 0.01 0.01 0.01 0.00 0.00 0.00 0.00 0.00 0.00 0.00 0.00
0.26 0.37 0.55 0.65 0.61 0.54 0.44 0.32 0.22 0.16 0.14 0.13 0.12 0.10 0.08 0.08 0.09 0.09 0.10 0.11 0.12 0.10 0.06 0.03 0.01 0.01 0.00 0.00 0.00 0.00 0.00 0.00 0.00 0.00 0.00 0.00 0.00 0.00
0.26 0.33 0.49 0.62 0.65 0.60 0.53 0.42 0.32 0.27 0.23 0.19 0.17 0.12 0.10 0.09 0.09 0.07 0.06 0.05 0.05 0.05 0.04 0.02 0.01 0.01 0.00 0.00 0.00 0.00 0.00 0.00 0.00 0.00 0.00 0.00 0.00 0.00
0.22 0.29 0.39 0.52 0.62 0.64 0.62 0.54 0.42 0.34 0.28 0.26 0.22 0.14 0.11 0.09 0.08 0.07 0.06 0.05 0.04 0.03 0.03 0.02 0.01 0.01 0.00 0.00 0.00 0.00 0.00 0.00 0.00 0.00 0.00 0.00 0.00 0.00
0.15 0.22 0.27 0.36 0.49 0.59 0.62 0.56 0.47 0.40 0.34 0.33 0.29 0.19 0.13 0.09 0.07 0.06 0.05 0.05 0.04 0.03 0.02 0.01 0.01 0.01 0.01 0.00 0.00 0.00 0.00 0.00 0.00 0.00 0.00 0.00 0.00 0.00
0.10 0.15 0.18 0.24 0.35 0.51 0.58 0.56 0.53 0.48 0.43 0.39 0.34 0.25 0.16 0.10 0.07 0.05 0.04 0.04 0.03 0.02 0.01 0.01 0.01 0.01 0.01 0.00 0.00 0.00 0.00 0.00 0.00 0.00 0.00 0.00 0.00 0.00
0.08 0.10 0.12 0.17 0.27 0.43 0.53 0.55 0.54 0.50 0.46 0.42 0.36 0.28 0.19 0.11 0.07 0.04 0.04 0.03 0.03 0.02 0.02 0.01 0.01 0.00 0.00 0.00 0.00 0.00 0.00 0.00 0.00 0.00 0.00 0.00 0.00 0.00
0.08 0.08 0.08 0.11 0.22 0.36 0.48 0.53 0.55 0.51 0.44 0.39 0.34 0.26 0.20 0.12 0.08 0.05 0.03 0.03 0.02 0.02 0.02 0.02 0.01 0.00 0.00 0.00 0.00 0.00 0.00 0.00 0.00 0.00 0.00 0.00 0.00 0.00
0.08 0.07 0.06 0.08 0.17 0.30 0.40 0.47 0.52 0.48 0.39 0.33 0.29 0.23 0.16 0.11 0.07 0.05 0.03 0.02 0.02 0.02 0.02 0.02 0.01 0.00 0.00 0.00 0.00 0.00 0.00 0.00 0.00 0.00 0.00 0.00 0.00 0.00